TimePDT,TemperatureF,Dew PointF,Humidity,Sea Level PressureIn,VisibilityMPH,Wind Direction,Wind SpeedMPH,Gust SpeedMPH,PrecipitationIn,Events,Conditions,WindDirDegrees,DateUTC
12:53 AM,63.0,37.9,40,29.88,10.0,SE,6.9,-,N/A,,Clear,140,2013-08-22 07:53:00
1:53 AM,64.0,39.9,41,29.88,10.0,SE,9.2,-,N/A,,Clear,140,2013-08-22 08:53:00
2:53 AM,64.0,39.9,41,29.87,10.0,SE,8.1,-,N/A,,Clear,140,2013-08-22 09:53:00
3:53 AM,62.1,39.9,44,29.88,10.0,SE,9.2,-,N/A,,Clear,130,2013-08-22 10:53:00
4:53 AM,60.1,39.0,46,29.87,10.0,SE,9.2,-,N/A,,Clear,140,2013-08-22 11:53:00
5:53 AM,60.1,39.0,46,29.86,10.0,SSE,8.1,-,N/A,,Clear,160,2013-08-22 12:53:00
6:53 AM,62.1,39.9,44,29.87,10.0,ESE,8.1,-,N/A,,Clear,110,2013-08-22 13:53:00
7:53 AM,69.1,39.9,35,29.87,10.0,SE,8.1,-,N/A,,Clear,140,2013-08-22 14:53:00
8:53 AM,69.1,39.0,33,29.87,10.0,Calm,Calm,-,N/A,,Clear,0,2013-08-22 15:53:00
9:53 AM,78.1,39.0,25,29.87,10.0,WNW,5.8,-,N/A,,Clear,290,2013-08-22 16:53:00
10:53 AM,81.0,37.0,21,29.86,10.0,Variable,4.6,-,N/A,,Clear,0,2013-08-22 17:53:00
11:53 AM,84.9,37.0,18,29.84,10.0,Variable,5.8,-,N/A,,Clear,0,2013-08-22 18:53:00
12:53 PM,87.1,36.0,16,29.82,10.0,Variable,3.5,-,N/A,,Clear,0,2013-08-22 19:53:00
1:53 PM,88.0,37.9,17,29.81,10.0,WNW,8.1,16.1,N/A,,Clear,300,2013-08-22 20:53:00
2:53 PM,86.0,39.0,19,29.81,10.0,WNW,12.7,-,N/A,,Clear,290,2013-08-22 21:53:00
3:53 PM,87.1,41.0,20,29.79,10.0,NW,10.4,19.6,N/A,,Clear,310,2013-08-22 22:53:00
4:53 PM,84.0,42.1,23,29.80,10.0,North,5.8,-,N/A,,Clear,350,2013-08-22 23:53:00
5:53 PM,82.0,41.0,23,29.81,10.0,West,3.5,-,N/A,,Overcast,280,2013-08-23 00:53:00
6:53 PM,78.1,46.0,32,29.79,10.0,East,4.6,-,0.00,,Scattered Clouds,90,2013-08-23 01:53:00
7:53 PM,73.9,48.9,41,29.78,10.0,SSW,5.8,-,N/A,,Clear,200,2013-08-23 02:53:00
8:53 PM,73.0,48.9,42,29.81,10.0,South,9.2,-,N/A,,Clear,170,2013-08-23 03:53:00
9:53 PM,71.1,48.9,45,29.80,10.0,South,8.1,-,N/A,,Clear,180,2013-08-23 04:53:00
10:53 PM,70.0,50.0,49,29.79,10.0,South,6.9,-,N/A,,Partly Cloudy,190,2013-08-23 05:53:00
11:53 PM,66.9,50.0,54,29.78,10.0,SSE,10.4,-,N/A,,Clear,160,2013-08-23 06:53:00